Volver al catálogo

SL-8 DEB

ActivoLEO
NORAD 10525·DEBRIS·🇷🇺 Russia

Lanzado Dec 16, 1977 desde Plesetsk Cosmodrome

Loading…

Próximos Pases (próximas 24 horas)

TLE

ActualizadoSource: Space-Track

Época: Sep 14, 2026, 04:08 UTC

1 10525U 77119D   26257.17229499  .00002595  00000-0  31585-3 0  9999
2 10525  74.0124 274.1998 0009138 279.1223  80.8921 14.83973998577299

Sigue SL-8 DEB en tiempo real con AllMySat

Download on the App Store